Location: Unspecified
(43.8044°N, 11.0278°E)
Time: 20:50:33
(UTC+02:00)

CZ-3 Stage 3 - Visible Passes

Search period start: 29 July 2014 00:00
Search period end: 08 August 2014 00:00
Orbit: 421 x 34831 km, 30.6° (Epoch: 27 July)

Date Brightness Start Highest point End Pass type
(mag) Time Alt. Az. Time Alt. Az. Time Alt. Az.
30 Jul 6.1 12:01:11 10° SW 12:38:28 31° S 12:45:16 10° ESE visible
31 Jul 8.3 04:54:48 10° S 08:42:56 24° SSE 09:07:05 10° ESE visible
02 Aug 6.0 12:01:05 10° SW 12:37:05 32° S 12:43:39 10° ESE visible
03 Aug 8.3 04:38:29 10° S 08:43:03 26° SSE 09:06:12 10° ESE visible
05 Aug 6.0 12:00:58 10° SW 12:35:37 33° S 12:41:57 10° ESE visible
06 Aug 8.3 04:22:40 10° S 08:42:57 27° SSE 09:05:08 10° ESE visible
